Preview of NWS' New Version of Forecast
This preview is not operational and should not be used for support decisions.

Regional Weather Roundup (RWR)

Issued by National Weather Service (NWS)

                            
000
ASUS44 KMEG 201100
RWRTN 
TENNESSEE HOURLY STATE WEATHER ROUNDUP
NATIONAL WEATHER SERVICE MEMPHIS TN
600 AM CDT WED MAR 20 2019

TNZ002-004-019-021-049-052-054-088>092-201200-
WEST TENNESSEE
  
CITY           SKY/WX    TMP DP  RH WIND       PRES   REMARKS
MEMPHIS INTL   FAIR      42  25  50 S7        30.22F                  
NWS MEMPHIS      N/A     37 N/A N/A MISG        N/A                   
JACKSON        FAIR      30  28  92 CALM      30.25S                  
DYERSBURG      FAIR      42  31  64 S3        30.23F                  
$$

TNZ008-025-027-028-033-062-065-066-201200-
NORTH MIDDLE TENNESSEE
  
CITY           SKY/WX    TMP DP  RH WIND       PRES   REMARKS
NASHVILLE      FAIR      32  26  78 S5        30.25S WCI  27          
CLARKSVILLE    FAIR      34  28  79 S3        30.25R                  
SMYRNA         FAIR      29  27  92 S3        30.28R                  
CROSSVILLE     FAIR      28  20  71 CALM      30.25R                  
$$

TNZ061-075-076-078-094-096-097-201200-
SOUTH MIDDLE TENNESSEE
  
CITY           SKY/WX    TMP DP  RH WIND       PRES   REMARKS
FAYETTEVILLE   CLEAR     37  23  56 CALM      30.24R                  
$$

TNZ017-018-042-046-047-201200-
NORTHEAST TENNESSEE
  
CITY           SKY/WX    TMP DP  RH WIND       PRES   REMARKS
TRI CITIES     FAIR      27  21  78 CALM      30.27R                  
$$

TNZ012-013-036-069-073-074-201200-
CENTRAL EAST TENNESSEE
  
CITY           SKY/WX    TMP DP  RH WIND       PRES   REMARKS
KNOXVILLE      FAIR      33  25  72 CALM      30.26R                  
OAK RIDGE      FAIR      31  25  78 CALM      30.29R                  
$$

TNZ083-085-099-201200-
SOUTHEAST TENNESSEE
  
CITY           SKY/WX    TMP DP  RH WIND       PRES   REMARKS
CHATTANOOGA    FAIR      32  28  85 CALM      30.29R                  
$$

SKY/WX REPORTED AS FAIR MEANS FEW OR NO CLOUDS BELOW
12 THOUSAND FEET.